CW5709 Weather Reports


Display with metric or nautical units.
time (UTC)temp
F
wind
direction
speed
MPH
gust
MPH
rain 1hr
in
rain 24hr
in
rain mn
in
humidity
%
barometer
mb
20260906171524 56 0.0 0.0 0.05 0.31 0.30 94 1017.5
20260906170030 56 0.0 0.0 0.04 0.30 0.29 94 1017.5
20260906164514 56 0.0 0.0 0.03 0.28 0.27 94 1017.5
20260906163020 56 0.0 0.0 0.02 0.27 0.26 94 1017.5
20260906161528 56 0.0 0.0 0.01 0.26 0.25 94 1017.5
20260906160027 56 0.0 0.0 0.01 0.26 0.25 94 1017.5
20260906154530 55 0.0 0.0 0.00 0.25 0.24 93 1017.3
20260906153026 55 0.0 0.0 0.01 0.25 0.24 93 1017.3
20260906151524 55 0.0 0.0 0.01 0.25 0.24 93 1017.2
20260906150037 55 0.0 0.0 0.01 0.25 0.24 93 1017.1
20260906144531 56 0.0 0.0 0.02 0.25 0.24 93 1016.8
20260906143027 56 0.0 0.0 0.03 0.24 0.23 92 1016.6
20260906141519 56 0.0 0.0 0.05 0.24 0.23 92 1016.4
20260906140002 56 0.0 0.0 0.06 0.24 0.23 92 1016.4
20260906134514 57 0.0 0.0 0.07 0.23 0.22 92 1016.4
20260906133010 57 0.0 0.0 0.07 0.21 0.20 92 1016.3
20260906131516 57 0.0 0.0 0.10 0.19 0.18 91 1016.3
20260906130025 57 0.0 0.0 0.17 0.18 0.17 91 1016.2
20260906124502 57 0.0 0.0 0.15 0.16 0.15 90 1016.1
20260906123009 57 0.0 0.0 0.13 0.15 0.13 90 1016.1
20260906121511 57 0.0 0.0 0.08 0.10 0.08 89 1016.1
20260906120017 57 0.0 0.0 0.00 0.02 0.00 88 1016.0
20260906114529 56 0.0 0.0 0.00 0.02 0.00 88 1015.8
20260906113008 56 0.0 0.0 0.00 0.03 0.00 88 1015.9
20260906111512 57 0.0 0.0 0.00 0.03 0.00 88 1015.9
20260906110014 57 0.0 0.0 0.00 0.03 0.00 88 1015.8
20260906104533 57 0.0 0.0 0.00 0.03 0.00 88 1015.8
20260906103033 57 0.0 0.0 0.00 0.03 0.00 87 1016.0
20260906101508 57 0.0 0.0 0.00 0.03 0.00 87 1016.1
20260906100012 57 0.0 0.0 0.00 0.03 0.00 87 1016.0
20260906094520 57 0.0 0.0 0.00 0.03 0.00 87 1015.8
20260906093027 57 0.0 0.0 0.00 0.03 0.00 87 1015.8
20260906091533 57 0.0 0.0 0.00 0.03 0.00 87 1015.7
20260906090012 57 0.0 0.0 0.00 0.03 0.00 87 1015.8
20260906084516 57 0.0 0.0 0.00 0.03 0.00 87 1015.9
20260906083025 57 0.0 0.0 0.00 0.03 0.00 87 1015.8
20260906081528 57 0.0 0.0 0.00 0.03 0.00 87 1015.9
20260906080035 57 0.0 0.0 0.00 0.03 0.00 87 1015.9
20260906074515 57 0.0 0.0 0.00 0.03 0.00 87 1015.8
20260906073022 57 0.0 0.0 0.00 0.03 0.00 86 1015.9
20260906071526 57 0.0 0.0 0.00 0.03 0.00 86 1016.0
20260906070004 57 0.0 0.0 0.00 0.03 0.00 86 1016.0
20260906064510 57 0.0 0.0 0.00 0.03 0.03 86 1016.0
20260906063016 57 0.0 0.0 0.00 0.03 0.03 86 1016.0
20260906061526 58 0.0 0.0 0.00 0.03 0.03 85 1015.9
20260906060030 58 0.0 0.0 0.00 0.03 0.03 85 1015.8
20260906054509 58 0.0 0.0 0.00 0.03 0.03 85 1015.9
20260906053011 58 0.0 0.0 0.00 0.03 0.03 84 1015.9
20260906051523 58 0.0 0.0 0.00 0.03 0.03 84 1016.0
20260906050028 58 0.0 0.0 0.00 0.03 0.03 83 1016.1
20260906044529 59 0.0 0.0 0.00 0.03 0.03 82 1016.3
20260906043013 59 0.0 0.0 0.00 0.03 0.03 81 1016.4
20260906041522 60 0.0 0.0 0.00 0.03 0.03 81 1016.5
20260906040029 60 0.0 0.0 0.00 0.04 0.03 79 1016.6
20260906034540 61 0.0 0.0 0.00 0.04 0.03 79 1016.3
20260906033031 62 0.0 0.0 0.00 0.04 0.03 77 1016.1
20260906031513 62 0.0 0.0 0.00 0.04 0.03 76 1016.0
20260906030021 63 0.0 0.0 0.00 0.05 0.03 74 1016.0
20260906024527 63 0.0 0.0 0.00 0.11 0.03 73 1015.9
20260906023031 64 0.0 0.0 0.00 0.11 0.03 71 1016.0
20260906021533 65 0.0 0.0 0.00 0.11 0.03 71 1016.1
20260906020014 65 0.0 0.0 0.00 0.11 0.03 69 1016.0
20260906014523 66 0.0 0.0 0.00 0.11 0.03 67 1015.9
20260906013033 66 0.0 0.0 0.00 0.11 0.03 65 1015.9
20260906011532 67 0.0 0.0 0.00 0.11 0.03 65 1015.8
20260906010032 67 0.0 0.0 0.00 0.11 0.03 62 1015.8
20260906004521 68 0.0 0.0 0.00 0.11 0.03 62 1015.9
20260906003027 68 0.0 0.0 0.00 0.11 0.03 64 1015.8
20260906001531 69 0.0 0.0 0.00 0.11 0.03 61 1015.8
20260906000037 69 0.0 0.0 0.00 0.11 0.03 59 1015.7
20260905234533 69 0.0 0.0 0.00 0.11 0.03 60 1015.7
20260905233029 69 0.0 0.0 0.01 0.11 0.03 57 1015.6
20260905231533 70 0.0 0.0 0.01 0.11 0.03 56 1015.8
20260905230030 71 0.0 0.0 0.01 0.11 0.03 55 1015.9
20260905224531 72 0.0 0.0 0.01 0.11 0.03 56 1016.1
20260905223035 74 0.0 0.0 0.00 0.10 0.02 52 1016.2
20260905221532 73 0.0 0.0 0.00 0.10 0.02 53 1016.3
20260905220004 73 0.0 0.0 0.00 0.10 0.02 52 1016.4
20260905214509 72 0.0 0.0 0.00 0.10 0.02 58 1016.6
20260905213013 70 0.0 0.0 0.00 0.10 0.02 56 1016.9
20260905211531 70 0.0 0.0 0.00 0.10 0.02 61 1017.0
20260905210029 67 0.0 0.0 0.00 0.10 0.02 67 1017.0
20260905204531 67 0.0 0.0 0.00 0.10 0.02 71 1017.2
20260905203016 66 0.0 0.0 0.00 0.10 0.02 73 1017.2
20260905201516 64 0.0 0.0 0.00 0.10 0.02 79 1017.3
20260905200023 62 0.0 0.0 0.00 0.10 0.02 79 1017.3
20260905194531 62 0.0 0.0 0.00 0.11 0.02 82 1017.4
20260905193010 61 0.0 0.0 0.00 0.11 0.02 84 1017.4
20260905191517 60 0.0 0.0 0.00 0.11 0.02 85 1017.4
20260905190024 60 0.0 0.0 0.00 0.11 0.02 90 1017.5
20260905184530 59 0.0 0.0 0.00 0.11 0.02 91 1017.5
20260905183032 59 0.0 0.0 0.00 0.11 0.02 91 1017.6
20260905181514 59 0.0 0.0 0.00 0.11 0.02 93 1017.6
20260905180017 59 0.0 0.0 0.00 0.11 0.02 94 1017.5
20260905174528 58 0.0 0.0 0.00 0.11 0.02 95 1017.5
20260905173030 58 0.0 0.0 0.00 0.11 0.02 96 1017.6